Regional Weather Roundup
Issued by NWS

Home | Current Version | Previous Version | Graphics & Text | Print | Product List | Glossary Off
Versions: 1 2 3 4 5 6 7 8 9 10 11 12 13 14 15 16 17 18 19 20 21 22 23 24 25 26 27 28 29 30 31 32 33 34 35 36 37 38 39 40 41 42 43 44 45 46 47 48 49 50

000
ASUS43 KTOP 312008
RWRKS

WEATHER ROUNDUP FOR KANSAS
NATIONAL WEATHER SERVICE GOODLAND KS
300 PM CDT MON AUG 31 2015

NOTE:  "FAIR" INDICATES FEW OR NO CLOUDS BELOW 12,000 FEET WITH NO
SIGNIFICANT WEATHER AND/OR OBSTRUCTIONS TO VISIBILITY.

KSZ001>006-013>018-027>032-041>047-312100-
NORTHWEST KANSAS

CITY           SKY/WX    TMP DP  RH WIND       PRES   REMARKS
GOODLAND       SUNNY     93  51  23 SE8       29.96S
HAYS           SUNNY     99  54  22 S15G23    29.88F HX  96
HILL CITY      SUNNY     99  55  23 SW13G18   29.89F HX  97
RUSSELL        SUNNY     98  50  19 S21G29    29.88F HX  95
$$

KSZ061>065-074>080-084>089-312100-
SOUTHWEST KANSAS

CITY           SKY/WX    TMP DP  RH WIND       PRES   REMARKS
DODGE CITY     SUNNY     95  48  20 S16G28    29.93F
ELKHART          N/A     91  57  31 S16         N/A
GARDEN CITY    SUNNY     95  49  20 S22G33    29.92S
GREAT BEND     SUNNY     97  57  26 S18       29.89F HX  95
LIBERAL        SUNNY     95  52  23 S18G29    29.95S
PRATT          SUNNY     93  54  26 MISG      29.94F
$$

KSZ066>073-081>083-090>101-312100-
SOUTHEAST KANSAS

CITY           SKY/WX    TMP DP  RH WIND       PRES   REMARKS
CHANUTE        SUNNY     88  71  57 S14G24    29.98F
COFFEYVILLE    SUNNY     89  73  59 S13       29.97F HX  97
HUTCHINSON     SUNNY     94  63  35 S15G22    29.93F HX  95
MEDICINE LODGE   N/A     95  59  30 S10G22    29.90F
NEWTON         SUNNY     91  64  40 S14       29.97S
PARSONS        SUNNY     88  72  58 S10       29.99F
WICHITA INTL   SUNNY     90  66  45 SE16      29.93F
WICHITA JABRA  SUNNY     88  68  51 S15       29.94F
WICHITA MCCONL SUNNY     89  69  51 SE12      29.94F
WINFIELD       SUNNY     93  65  39 S14G21    29.95F HX  95
$$

KSZ007>012-019>026-033>040-048>060-102>105-312100-
NORTHEAST KANSAS

CITY           SKY/WX    TMP DP  RH WIND       PRES   REMARKS
CONCORDIA      SUNNY     90  66  45 S13       29.91F
EMPORIA        SUNNY     90  64  42 S15       29.94F
LAWRENCE       SUNNY     90  69  50 S10       29.95F
MANHATTAN      SUNNY     92  68  45 S9        29.91F HX  96
MARYSVILLE     SUNNY    N/A N/A N/A S9G20     29.92F
OLATHE IND     SUNNY     87  71  58 S10       29.98F
OLATHE EXE     SUNNY     86  69  56 S10G16    29.97F
SALINA         SUNNY     95  63  34 S16G23    29.90F HX  96
TOPEKA BILLARD SUNNY     90  68  48 S9        29.94F
TOPEKA FORBES  SUNNY     91  69  48 SE13      29.95F HX  96
$$


USA.gov is the U.S. government's official web portal to all federal, state and local government web resources and services.